Location: Multiple Mirror Telescope
(31.6889°N, 110.8853°W)
Time: 06:55:28
(UTC-07:00)

Tiangong - Pass Details

Date: 03 June 2024
Orbit: 377 x 379 km, 41.5° (Epoch: 07 September)

Event Time Altitude Azimuth Distance (km) Brightness Sun altitude
Exits shadow 03:19:43 53° 98° (E) 499 -1.5 -21.2°
Drops below altitude 10° 03:22:24 10° 115° (ESE) 1,469 1.0 -20.8°
Sets 03:24:32 0° 117° (ESE) 2,345 2.1 -20.5°
